,,PressureMeas_1m,,PRMeasQMR101_1,,RHStat155_1m_1,,SRMeasQMS101R_1m,,TAStat155_1m_1,,GenWind_1,,GenWind_1,
2019-06-25, 00:00:06,VALID,918.416,VALID,0.0,VALID,95.026,VALID,0.025,VALID,19.726,INVALID,360.0,VALID,0.0,
2019-06-25, 00:01:06,VALID,918.429,VALID,0.0,VALID,94.464,VALID,0.023,VALID,19.729,INVALID,360.0,VALID,0.0,
2019-06-25, 00:02:06,VALID,918.421,VALID,0.0,VALID,94.259,VALID,-0.005,VALID,19.758,INVALID,360.0,VALID,0.0,
2019-06-25, 00:03:06,VALID,918.419,VALID,0.0,VALID,94.172,VALID,-0.017,VALID,19.743,INVALID,360.0,VALID,0.0,
2019-06-25, 00:04:06,VALID,918.422,VALID,0.0,VALID,93.934,VALID,-0.007,VALID,19.725,INVALID,360.0,VALID,0.0,
2019-06-25, 00:05:06,VALID,918.406,VALID,0.0,VALID,94.055,VALID,-0.0,VALID,19.723,INVALID,360.0,VALID,0.0,
2019-06-25, 00:06:06,VALID,918.399,VALID,0.0,VALID,94.284,VALID,-0.007,VALID,19.697,INVALID,360.0,VALID,0.0,
2019-06-25, 00:07:06,VALID,918.387,VALID,0.0,VALID,94.297,VALID,-0.008,VALID,19.665,INVALID,360.0,VALID,0.0,
2019-06-25, 00:08:06,VALID,918.361,VALID,0.0,VALID,94.347,VALID,-0.015,VALID,19.641,INVALID,360.0,VALID,0.0,
2019-06-25, 00:09:06,VALID,918.364,VALID,0.0,VALID,94.258,VALID,0.007,VALID,19.623,INVALID,360.0,VALID,0.0,
2019-06-25, 00:10:06,VALID,918.334,VALID,0.0,VALID,94.351,VALID,-0.013,VALID,19.622,INVALID,360.0,VALID,0.0,
2019-06-25, 00:11:06,VALID,918.331,VALID,0.0,VALID,94.329,VALID,-0.014,VALID,19.628,INVALID,360.0,VALID,0.0,
2019-06-25, 00:12:06,VALID,918.327,VALID,0.0,VALID,94.221,VALID,-0.027,VALID,19.635,INVALID,360.0,VALID,0.0,
2019-06-25, 00:13:06,VALID,918.324,VALID,0.0,VALID,94.073,VALID,-0.01,VALID,19.653,INVALID,360.0,VALID,0.0,
2019-06-25, 00:14:06,VALID,918.307,VALID,0.0,VALID,93.969,VALID,-0.003,VALID,19.658,INVALID,360.0,VALID,0.0,
2019-06-25, 00:15:06,VALID,918.293,VALID,0.0,VALID,93.799,VALID,-0.015,VALID,19.664,INVALID,360.0,VALID,0.0,
2019-06-25, 00:16:06,VALID,918.309,VALID,0.0,VALID,93.657,VALID,0.001,VALID,19.692,INVALID,360.0,VALID,0.0,
2019-06-25, 00:17:06,VALID,918.305,VALID,0.0,VALID,93.375,VALID,0.004,VALID,19.71,INVALID,360.0,VALID,0.0,
2019-06-25, 00:18:06,VALID,918.303,VALID,0.0,VALID,93.151,VALID,-0.03,VALID,19.747,INVALID,360.0,VALID,0.0,
2019-06-25, 00:19:06,VALID,918.289,VALID,0.0,VALID,93.075,VALID,-0.007,VALID,19.785,INVALID,360.0,VALID,0.0,
2019-06-25, 00:20:06,VALID,918.288,VALID,0.0,VALID,93.19,VALID,-0.025,VALID,19.803,INVALID,360.0,VALID,0.0,
2019-06-25, 00:21:06,VALID,918.301,VALID,0.0,VALID,93.416,VALID,-0.022,VALID,19.791,INVALID,360.0,VALID,0.0,
2019-06-25, 00:22:06,VALID,918.276,VALID,0.0,VALID,93.7,VALID,-0.013,VALID,19.766,INVALID,360.0,VALID,0.0,
2019-06-25, 00:23:06,VALID,918.263,VALID,0.0,VALID,93.709,VALID,-0.029,VALID,19.736,INVALID,360.0,VALID,0.0,
2019-06-25, 00:24:06,VALID,918.252,VALID,0.0,VALID,93.485,VALID,-0.013,VALID,19.754,INVALID,360.0,VALID,0.0,
2019-06-25, 00:25:06,VALID,918.242,VALID,0.0,VALID,93.434,VALID,-0.035,VALID,19.779,INVALID,360.0,VALID,0.0,
2019-06-25, 00:26:06,VALID,918.232,VALID,0.0,VALID,93.254,VALID,-0.016,VALID,19.785,INVALID,360.0,VALID,0.0,
2019-06-25, 00:27:06,VALID,918.217,VALID,0.0,VALID,92.962,VALID,-0.019,VALID,19.795,INVALID,360.0,VALID,0.0,
2019-06-25, 00:28:06,VALID,918.221,VALID,0.0,VALID,92.88,VALID,-0.016,VALID,19.815,INVALID,360.0,VALID,0.0,
2019-06-25, 00:29:06,VALID,918.209,VALID,0.0,VALID,92.701,VALID,-0.019,VALID,19.821,INVALID,360.0,VALID,0.0,
2019-06-25, 00:30:06,VALID,918.203,VALID,0.0,VALID,92.621,VALID,-0.023,VALID,19.833,INVALID,360.0,VALID,0.0,
2019-06-25, 00:31:06,VALID,918.209,VALID,0.0,VALID,92.556,VALID,-0.026,VALID,19.815,INVALID,360.0,VALID,0.0,
2019-06-25, 00:32:06,VALID,918.202,VALID,0.0,VALID,92.6,VALID,-0.007,VALID,19.804,INVALID,360.0,VALID,0.0,
2019-06-25, 00:33:06,VALID,918.187,VALID,0.0,VALID,92.936,VALID,-0.005,VALID,19.793,INVALID,360.0,VALID,0.0,
2019-06-25, 00:34:06,VALID,918.164,VALID,0.0,VALID,93.199,VALID,0.004,VALID,19.764,INVALID,360.0,VALID,0.0,
2019-06-25, 00:35:06,VALID,918.157,VALID,0.0,VALID,93.298,VALID,0.001,VALID,19.734,INVALID,360.0,VALID,0.0,
2019-06-25, 00:36:06,VALID,918.148,VALID,0.0,VALID,93.129,VALID,-0.01,VALID,19.711,INVALID,360.0,VALID,0.0,
2019-06-25, 00:37:06,VALID,918.138,VALID,0.0,VALID,92.743,VALID,0.0,VALID,19.703,INVALID,360.0,VALID,0.0,
2019-06-25, 00:38:06,VALID,918.127,VALID,0.0,VALID,92.409,VALID,0.005,VALID,19.725,INVALID,360.0,VALID,0.0,
2019-06-25, 00:39:06,VALID,918.12,VALID,0.0,VALID,92.326,VALID,0.005,VALID,19.737,INVALID,360.0,VALID,0.0,
2019-06-25, 00:40:06,VALID,918.133,VALID,0.0,VALID,92.466,VALID,0.0,VALID,19.736,INVALID,360.0,VALID,0.0,
2019-06-25, 00:41:06,VALID,918.11,VALID,0.0,VALID,92.478,VALID,-0.01,VALID,19.716,INVALID,360.0,VALID,0.0,
2019-06-25, 00:42:06,VALID,918.106,VALID,0.0,VALID,92.69,VALID,-0.012,VALID,19.728,INVALID,360.0,VALID,0.0,
2019-06-25, 00:43:06,VALID,918.118,VALID,0.0,VALID,92.964,VALID,0.003,VALID,19.715,INVALID,360.0,VALID,0.0,
2019-06-25, 00:44:06,VALID,918.099,VALID,0.0,VALID,93.177,VALID,-0.007,VALID,19.68,VALID,60.0,VALID,0.0,
2019-06-25, 00:45:06,VALID,918.101,VALID,0.0,VALID,93.029,VALID,-0.001,VALID,19.626,INVALID,360.0,VALID,0.0,
2019-06-25, 00:46:06,VALID,918.086,VALID,0.0,VALID,92.858,VALID,-0.005,VALID,19.603,INVALID,360.0,VALID,0.0,
2019-06-25, 00:47:06,VALID,918.056,VALID,0.0,VALID,92.854,VALID,-0.006,VALID,19.598,VALID,60.0,VALID,0.0,
2019-06-25, 00:48:06,VALID,918.057,VALID,0.0,VALID,92.883,VALID,-0.005,VALID,19.586,VALID,62.0,VALID,0.0,
2019-06-25, 00:49:06,VALID,918.035,VALID,0.0,VALID,92.907,VALID,-0.009,VALID,19.58,VALID,59.0,VALID,0.0,
2019-06-25, 00:50:06,VALID,918.027,VALID,0.0,VALID,92.807,VALID,0.016,VALID,19.562,INVALID,360.0,VALID,0.0,
2019-06-25, 00:51:06,VALID,918.035,VALID,0.0,VALID,92.857,VALID,0.013,VALID,19.54,INVALID,360.0,VALID,0.0,
2019-06-25, 00:52:06,VALID,917.98,VALID,0.0,VALID,92.939,VALID,0.013,VALID,19.51,VALID,60.0,VALID,0.0,
2019-06-25, 00:53:06,VALID,917.964,VALID,0.0,VALID,93.082,VALID,-0.001,VALID,19.512,VALID,60.0,VALID,0.0,
2019-06-25, 00:54:06,VALID,917.928,VALID,0.0,VALID,93.113,VALID,-0.003,VALID,19.49,INVALID,360.0,VALID,0.0,
2019-06-25, 00:55:06,VALID,917.91,VALID,0.0,VALID,93.034,VALID,0.015,VALID,19.486,INVALID,360.0,VALID,0.0,
2019-06-25, 00:56:06,VALID,917.876,VALID,0.0,VALID,92.91,VALID,0.003,VALID,19.505,INVALID,360.0,VALID,0.0,
2019-06-25, 00:57:06,VALID,917.86,VALID,0.0,VALID,92.765,VALID,-0.001,VALID,19.51,INVALID,360.0,VALID,0.0,
2019-06-25, 00:58:06,VALID,917.83,VALID,0.0,VALID,92.79,VALID,-0.001,VALID,19.516,INVALID,360.0,VALID,0.0,
2019-06-25, 00:59:06,VALID,917.815,VALID,0.0,VALID,93.022,VALID,-0.003,VALID,19.529,INVALID,360.0,VALID,0.0,
2019-06-25, 01:00:06,VALID,917.814,VALID,0.0,VALID,93.222,VALID,-0.004,VALID,19.549,INVALID,360.0,VALID,0.0,
2019-06-25, 01:01:06,VALID,917.791,VALID,0.0,VALID,93.224,VALID,-0.001,VALID,19.572,INVALID,360.0,VALID,0.0,
2019-06-25, 01:02:06,VALID,917.79,VALID,0.0,VALID,92.873,VALID,-0.013,VALID,19.592,INVALID,360.0,VALID,0.0,
2019-06-25, 01:03:06,VALID,917.783,VALID,0.0,VALID,92.715,VALID,-0.012,VALID,19.614,INVALID,360.0,VALID,0.0,
2019-06-25, 01:04:06,VALID,917.796,VALID,0.0,VALID,92.664,VALID,-0.026,VALID,19.645,INVALID,360.0,VALID,0.0,
2019-06-25, 01:05:06,VALID,917.806,VALID,0.0,VALID,92.578,VALID,-0.012,VALID,19.668,INVALID,360.0,VALID,0.0,
2019-06-25, 01:06:06,VALID,917.823,VALID,0.0,VALID,92.435,VALID,-0.019,VALID,19.677,INVALID,360.0,VALID,0.0,
2019-06-25, 01:07:06,VALID,917.842,VALID,0.0,VALID,93.244,VALID,-0.016,VALID,19.657,INVALID,360.0,VALID,0.0,
2019-06-25, 01:08:06,VALID,917.839,VALID,0.0,VALID,93.861,VALID,-0.024,VALID,19.599,INVALID,360.0,VALID,0.0,
2019-06-25, 01:09:06,VALID,917.838,VALID,0.0,VALID,93.372,VALID,-0.022,VALID,19.488,INVALID,360.0,VALID,0.0,
2019-06-25, 01:10:06,VALID,917.849,VALID,0.0,VALID,93.506,VALID,-0.027,VALID,19.357,INVALID,360.0,VALID,0.0,
2019-06-25, 01:11:06,VALID,917.863,VALID,0.0,VALID,93.827,VALID,-0.031,VALID,19.267,INVALID,360.0,VALID,0.0,
2019-06-25, 01:12:06,VALID,917.872,VALID,0.0,VALID,93.811,VALID,-0.014,VALID,19.277,INVALID,360.0,VALID,0.0,
2019-06-25, 01:13:06,VALID,917.892,VALID,0.0,VALID,94.105,VALID,-0.005,VALID,19.281,INVALID,360.0,VALID,0.0,
2019-06-25, 01:14:06,VALID,917.894,VALID,0.0,VALID,93.707,VALID,-0.016,VALID,19.266,INVALID,360.0,VALID,0.0,
2019-06-25, 01:15:06,VALID,917.922,VALID,0.0,VALID,93.261,VALID,-0.021,VALID,19.335,INVALID,360.0,VALID,0.0,
2019-06-25, 01:16:06,VALID,917.925,VALID,0.0,VALID,93.5,VALID,-0.029,VALID,19.388,INVALID,360.0,VALID,0.0,
2019-06-25, 01:17:06,VALID,917.938,VALID,0.0,VALID,94.118,VALID,0.014,VALID,19.345,INVALID,360.0,VALID,0.0,
2019-06-25, 01:18:06,VALID,917.943,VALID,0.0,VALID,94.385,VALID,0.001,VALID,19.317,INVALID,360.0,VALID,0.0,
2019-06-25, 01:19:06,VALID,917.948,VALID,0.0,VALID,94.577,VALID,-0.007,VALID,19.31,INVALID,360.0,VALID,0.0,
2019-06-25, 01:20:06,VALID,917.957,VALID,0.0,VALID,94.687,VALID,-0.006,VALID,19.301,INVALID,360.0,VALID,0.0,
2019-06-25, 01:21:06,VALID,917.961,VALID,0.0,VALID,95.018,VALID,0.001,VALID,19.295,INVALID,360.0,VALID,0.0,
2019-06-25, 01:22:06,VALID,917.966,VALID,0.0,VALID,95.368,VALID,-0.002,VALID,19.291,INVALID,360.0,VALID,0.0,
2019-06-25, 01:23:06,VALID,917.982,VALID,0.0,VALID,95.601,VALID,0.001,VALID,19.279,INVALID,360.0,VALID,0.0,
2019-06-25, 01:24:06,VALID,917.978,VALID,0.0,VALID,95.954,VALID,0.002,VALID,19.257,INVALID,360.0,VALID,0.0,
2019-06-25, 01:25:06,VALID,917.968,VALID,0.0,VALID,96.023,VALID,0.001,VALID,19.221,INVALID,360.0,VALID,0.0,
2019-06-25, 01:26:06,VALID,917.973,VALID,0.0,VALID,96.051,VALID,0.022,VALID,19.21,INVALID,360.0,VALID,0.0,
2019-06-25, 01:27:06,VALID,917.951,VALID,0.0,VALID,96.072,VALID,0.007,VALID,19.187,INVALID,360.0,VALID,0.0,
2019-06-25, 01:28:06,VALID,917.947,VALID,0.0,VALID,95.956,VALID,0.0,VALID,19.183,INVALID,360.0,VALID,0.0,
2019-06-25, 01:29:06,VALID,917.942,VALID,0.0,VALID,95.881,VALID,-0.001,VALID,19.176,INVALID,360.0,VALID,0.0,
2019-06-25, 01:30:06,VALID,917.929,VALID,0.0,VALID,95.813,VALID,-0.005,VALID,19.165,INVALID,360.0,VALID,0.0,
2019-06-25, 01:31:06,VALID,917.918,VALID,0.0,VALID,95.788,VALID,-0.007,VALID,19.15,INVALID,360.0,VALID,0.0,
2019-06-25, 01:32:06,VALID,917.903,VALID,0.0,VALID,95.53,VALID,0.015,VALID,19.154,INVALID,360.0,VALID,0.0,
2019-06-25, 01:33:06,VALID,917.888,VALID,0.0,VALID,95.19,VALID,0.017,VALID,19.169,INVALID,360.0,VALID,0.0,
2019-06-25, 01:34:06,VALID,917.88,VALID,0.0,VALID,94.864,VALID,0.032,VALID,19.198,INVALID,360.0,VALID,0.0,
2019-06-25, 01:35:06,VALID,917.892,VALID,0.0,VALID,94.624,VALID,0.021,VALID,19.208,INVALID,360.0,VALID,0.0,
2019-06-25, 01:36:06,VALID,917.863,VALID,0.0,VALID,94.365,VALID,0.013,VALID,19.224,INVALID,360.0,VALID,0.0,
2019-06-25, 01:37:06,VALID,917.869,VALID,0.0,VALID,94.061,VALID,0.015,VALID,19.234,INVALID,360.0,VALID,0.0,
2019-06-25, 01:38:06,VALID,917.857,VALID,0.0,VALID,93.751,VALID,0.003,VALID,19.261,INVALID,360.0,VALID,0.0,
2019-06-25, 01:39:06,VALID,917.861,VALID,0.0,VALID,93.496,VALID,0.024,VALID,19.292,INVALID,360.0,VALID,0.0,
2019-06-25, 01:40:06,VALID,917.861,VALID,0.0,VALID,93.202,VALID,0.026,VALID,19.326,INVALID,360.0,VALID,0.0,
2019-06-25, 01:41:06,VALID,917.862,VALID,0.0,VALID,93.355,VALID,0.054,VALID,19.342,INVALID,360.0,VALID,0.0,
2019-06-25, 01:42:06,VALID,917.877,VALID,0.0,VALID,93.321,VALID,0.047,VALID,19.346,INVALID,360.0,VALID,0.0,
2019-06-25, 01:43:06,VALID,917.872,VALID,0.0,VALID,93.432,VALID,0.036,VALID,19.351,INVALID,360.0,VALID,0.0,
2019-06-25, 01:44:06,VALID,917.893,VALID,0.0,VALID,93.409,VALID,0.048,VALID,19.359,INVALID,360.0,VALID,0.0,
2019-06-25, 01:45:06,VALID,917.905,VALID,0.0,VALID,93.804,VALID,0.03,VALID,19.349,INVALID,360.0,VALID,0.0,
2019-06-25, 01:46:06,VALID,917.88,VALID,0.0,VALID,94.601,VALID,0.038,VALID,19.319,INVALID,360.0,VALID,0.0,
2019-06-25, 01:47:06,VALID,917.89,VALID,0.0,VALID,94.654,VALID,0.014,VALID,19.247,INVALID,360.0,VALID,0.0,
2019-06-25, 01:48:06,VALID,917.918,VALID,0.0,VALID,94.293,VALID,0.015,VALID,19.226,INVALID,360.0,VALID,0.0,
2019-06-25, 01:49:06,VALID,917.891,VALID,0.0,VALID,94.101,VALID,0.029,VALID,19.235,INVALID,360.0,VALID,0.0,
2019-06-25, 01:50:06,VALID,917.889,VALID,0.0,VALID,93.154,VALID,0.025,VALID,19.247,INVALID,360.0,VALID,0.0,
2019-06-25, 01:51:07,VALID,917.866,VALID,0.0,VALID,92.332,VALID,0.014,VALID,19.289,INVALID,360.0,VALID,0.0,
2019-06-25, 01:52:07,VALID,917.885,VALID,0.0,VALID,91.543,VALID,0.009,VALID,19.366,INVALID,360.0,VALID,0.0,
2019-06-25, 01:53:07,VALID,917.877,VALID,0.0,VALID,91.266,VALID,0.012,VALID,19.408,INVALID,360.0,VALID,0.0,
2019-06-25, 01:54:07,VALID,917.882,VALID,0.0,VALID,90.874,VALID,0.001,VALID,19.438,INVALID,360.0,VALID,0.0,
2019-06-25, 01:55:07,VALID,917.875,VALID,0.0,VALID,90.347,VALID,0.011,VALID,19.48,INVALID,360.0,VALID,0.0,
2019-06-25, 01:56:07,VALID,917.882,VALID,0.0,VALID,89.974,VALID,0.005,VALID,19.51,INVALID,360.0,VALID,0.0,
2019-06-25, 01:57:07,VALID,917.886,VALID,0.0,VALID,89.734,VALID,-0.005,VALID,19.539,INVALID,360.0,VALID,0.0,
2019-06-25, 01:58:07,VALID,917.887,VALID,0.0,VALID,89.486,VALID,0.014,VALID,19.589,INVALID,360.0,VALID,0.0,
2019-06-25, 01:59:07,VALID,917.909,VALID,0.0,VALID,89.338,VALID,0.009,VALID,19.626,INVALID,360.0,VALID,0.0,
2019-06-25, 02:00:07,VALID,917.911,VALID,0.0,VALID,89.227,VALID,0.008,VALID,19.677,INVALID,360.0,VALID,0.0,
2019-06-25, 02:01:07,VALID,917.917,VALID,0.0,VALID,88.954,VALID,0.009,VALID,19.725,INVALID,360.0,VALID,0.0,
2019-06-25, 02:02:07,VALID,917.922,VALID,0.0,VALID,89.053,VALID,-0.002,VALID,19.734,INVALID,360.0,VALID,0.0,
2019-06-25, 02:03:07,VALID,917.899,VALID,0.0,VALID,88.971,VALID,0.009,VALID,19.728,INVALID,360.0,VALID,0.0,
2019-06-25, 02:04:07,VALID,917.904,VALID,0.0,VALID,88.857,VALID,-0.001,VALID,19.75,INVALID,360.0,VALID,0.0,
2019-06-25, 02:05:07,VALID,917.903,VALID,0.0,VALID,88.615,VALID,0.004,VALID,19.762,INVALID,360.0,VALID,0.0,
2019-06-25, 02:06:07,VALID,917.896,VALID,0.0,VALID,88.582,VALID,-0.007,VALID,19.786,INVALID,360.0,VALID,0.0,
2019-06-25, 02:07:07,VALID,917.895,VALID,0.0,VALID,88.733,VALID,0.001,VALID,19.784,INVALID,360.0,VALID,0.0,
2019-06-25, 02:08:07,VALID,917.871,VALID,0.0,VALID,88.625,VALID,0.004,VALID,19.768,INVALID,360.0,VALID,0.0,
2019-06-25, 02:09:07,VALID,917.871,VALID,0.0,VALID,88.045,VALID,-0.005,VALID,19.774,INVALID,360.0,VALID,0.0,
2019-06-25, 02:10:07,VALID,917.855,VALID,0.0,VALID,87.383,VALID,-0.014,VALID,19.833,INVALID,360.0,VALID,0.0,
2019-06-25, 02:11:07,VALID,917.852,VALID,0.0,VALID,86.965,VALID,-0.014,VALID,19.907,INVALID,360.0,VALID,0.0,
2019-06-25, 02:12:07,VALID,917.84,VALID,0.0,VALID,87.987,VALID,-0.02,VALID,19.907,INVALID,360.0,VALID,0.0,
2019-06-25, 02:13:07,VALID,917.839,VALID,0.0,VALID,88.046,VALID,0.012,VALID,19.854,INVALID,360.0,VALID,0.0,
2019-06-25, 02:14:07,VALID,917.818,VALID,0.0,VALID,87.711,VALID,-0.012,VALID,19.846,INVALID,360.0,VALID,0.0,
2019-06-25, 02:15:07,VALID,917.8,VALID,0.0,VALID,87.528,VALID,-0.001,VALID,19.864,INVALID,360.0,VALID,0.0,
2019-06-25, 02:16:07,VALID,917.799,VALID,0.0,VALID,87.316,VALID,-0.021,VALID,19.853,INVALID,360.0,VALID,0.0,
2019-06-25, 02:17:07,VALID,917.774,VALID,0.0,VALID,87.565,VALID,-0.002,VALID,19.835,INVALID,360.0,VALID,0.0,
2019-06-25, 02:18:07,VALID,917.755,VALID,0.0,VALID,87.398,VALID,0.008,VALID,19.82,INVALID,360.0,VALID,0.0,
2019-06-25, 02:19:07,VALID,917.742,VALID,0.0,VALID,87.024,VALID,0.017,VALID,19.836,INVALID,360.0,VALID,0.0,
2019-06-25, 02:20:07,VALID,917.724,VALID,0.0,VALID,86.98,VALID,0.014,VALID,19.849,INVALID,360.0,VALID,0.0,
2019-06-25, 02:21:07,VALID,917.702,VALID,0.0,VALID,87.088,VALID,0.014,VALID,19.855,INVALID,360.0,VALID,0.0,
2019-06-25, 02:22:07,VALID,917.686,VALID,0.0,VALID,86.861,VALID,0.012,VALID,19.868,INVALID,360.0,VALID,0.0,
2019-06-25, 02:23:07,VALID,917.666,VALID,0.0,VALID,87.456,VALID,0.01,VALID,19.862,INVALID,360.0,VALID,0.0,
2019-06-25, 02:24:07,VALID,917.659,VALID,0.0,VALID,88.038,VALID,0.019,VALID,19.79,INVALID,360.0,VALID,0.0,
2019-06-25, 02:25:07,VALID,917.67,VALID,0.0,VALID,87.822,VALID,0.024,VALID,19.739,INVALID,360.0,VALID,0.0,
2019-06-25, 02:26:07,VALID,917.694,VALID,0.0,VALID,88.145,VALID,0.004,VALID,19.737,INVALID,360.0,VALID,0.0,
2019-06-25, 02:27:07,VALID,917.694,VALID,0.0,VALID,88.757,VALID,0.01,VALID,19.694,INVALID,360.0,VALID,0.0,
2019-06-25, 02:28:07,VALID,917.681,VALID,0.0,VALID,88.782,VALID,0.008,VALID,19.634,INVALID,360.0,VALID,0.0,
2019-06-25, 02:29:07,VALID,917.693,VALID,0.0,VALID,89.104,VALID,0.009,VALID,19.618,INVALID,360.0,VALID,0.0,
2019-06-25, 02:30:07,VALID,917.67,VALID,0.0,VALID,89.229,VALID,0.022,VALID,19.621,INVALID,360.0,VALID,0.0,
2019-06-25, 02:31:07,VALID,917.691,VALID,0.0,VALID,89.145,VALID,0.013,VALID,19.615,INVALID,360.0,VALID,0.0,
2019-06-25, 02:32:07,VALID,917.694,VALID,0.0,VALID,88.659,VALID,0.008,VALID,19.632,INVALID,360.0,VALID,0.0,
2019-06-25, 02:33:07,VALID,917.708,VALID,0.0,VALID,88.733,VALID,0.007,VALID,19.665,INVALID,360.0,VALID,0.0,
2019-06-25, 02:34:07,VALID,917.712,VALID,0.0,VALID,88.854,VALID,0.007,VALID,19.674,INVALID,360.0,VALID,0.0,
2019-06-25, 02:35:07,VALID,917.731,VALID,0.0,VALID,88.697,VALID,0.012,VALID,19.666,INVALID,360.0,VALID,0.0,
2019-06-25, 02:36:07,VALID,917.734,VALID,0.0,VALID,88.823,VALID,0.008,VALID,19.669,INVALID,360.0,VALID,0.0,
2019-06-25, 02:37:07,VALID,917.741,VALID,0.0,VALID,89.141,VALID,0.017,VALID,19.677,INVALID,360.0,VALID,0.0,
2019-06-25, 02:38:07,VALID,917.713,VALID,0.0,VALID,89.354,VALID,0.026,VALID,19.68,INVALID,360.0,VALID,0.0,
2019-06-25, 02:39:07,VALID,917.703,VALID,0.0,VALID,89.315,VALID,0.029,VALID,19.652,INVALID,360.0,VALID,0.0,
2019-06-25, 02:40:07,VALID,917.724,VALID,0.0,VALID,89.535,VALID,0.034,VALID,19.626,INVALID,360.0,VALID,0.0,
2019-06-25, 02:41:07,VALID,917.716,VALID,0.0,VALID,89.896,VALID,0.018,VALID,19.602,INVALID,360.0,VALID,0.0,
2019-06-25, 02:42:07,VALID,917.716,VALID,0.0,VALID,90.314,VALID,0.029,VALID,19.576,INVALID,360.0,VALID,0.0,
2019-06-25, 02:43:07,VALID,917.709,VALID,0.0,VALID,90.907,VALID,0.011,VALID,19.539,INVALID,360.0,VALID,0.0,
2019-06-25, 02:44:07,VALID,917.727,VALID,0.0,VALID,91.557,VALID,0.01,VALID,19.42,INVALID,360.0,VALID,0.0,
2019-06-25, 02:45:07,VALID,917.733,VALID,0.0,VALID,92.226,VALID,0.016,VALID,19.246,INVALID,360.0,VALID,0.0,
2019-06-25, 02:46:07,VALID,917.717,VALID,0.0,VALID,92.334,VALID,0.017,VALID,19.143,INVALID,360.0,VALID,0.0,
2019-06-25, 02:47:07,VALID,917.708,VALID,0.0,VALID,92.332,VALID,0.016,VALID,19.084,INVALID,360.0,VALID,0.0,
2019-06-25, 02:48:07,VALID,917.7,VALID,0.0,VALID,92.673,VALID,0.026,VALID,19.067,INVALID,360.0,VALID,0.0,
2019-06-25, 02:49:07,VALID,917.679,VALID,0.0,VALID,92.311,VALID,0.011,VALID,19.082,INVALID,360.0,VALID,0.0,
2019-06-25, 02:50:07,VALID,917.663,VALID,0.0,VALID,91.483,VALID,0.028,VALID,19.19,INVALID,360.0,VALID,0.0,
2019-06-25, 02:51:07,VALID,917.663,VALID,0.0,VALID,90.742,VALID,0.018,VALID,19.257,INVALID,360.0,VALID,0.0,
2019-06-25, 02:52:07,VALID,917.675,VALID,0.0,VALID,90.037,VALID,0.002,VALID,19.359,INVALID,360.0,VALID,0.0,
2019-06-25, 02:53:07,VALID,917.666,VALID,0.0,VALID,89.747,VALID,0.001,VALID,19.44,INVALID,360.0,VALID,0.0,
2019-06-25, 02:54:07,VALID,917.693,VALID,0.0,VALID,90.477,VALID,0.006,VALID,19.433,INVALID,360.0,VALID,0.0,
2019-06-25, 02:55:07,VALID,917.717,VALID,0.0,VALID,91.43,VALID,0.012,VALID,19.331,INVALID,360.0,VALID,0.0,
2019-06-25, 02:56:07,VALID,917.726,VALID,0.0,VALID,91.722,VALID,0.006,VALID,19.258,INVALID,360.0,VALID,0.0,
2019-06-25, 02:57:07,VALID,917.718,VALID,0.0,VALID,91.826,VALID,0.005,VALID,19.204,INVALID,360.0,VALID,0.0,
2019-06-25, 02:58:07,VALID,917.734,VALID,0.0,VALID,92.085,VALID,0.009,VALID,19.164,INVALID,360.0,VALID,0.0,
2019-06-25, 02:59:07,VALID,917.722,VALID,0.0,VALID,92.313,VALID,0.025,VALID,19.136,INVALID,360.0,VALID,0.0,
2019-06-25, 03:00:07,VALID,917.731,VALID,0.0,VALID,92.514,VALID,0.007,VALID,19.116,INVALID,360.0,VALID,0.0,
2019-06-25, 03:01:07,VALID,917.73,VALID,0.0,VALID,92.473,VALID,0.001,VALID,19.115,INVALID,360.0,VALID,0.0,
2019-06-25, 03:02:07,VALID,917.725,VALID,0.0,VALID,92.189,VALID,0.004,VALID,19.125,INVALID,360.0,VALID,0.0,
2019-06-25, 03:03:07,VALID,917.729,VALID,0.0,VALID,92.112,VALID,-0.004,VALID,19.127,INVALID,360.0,VALID,0.0,
2019-06-25, 03:04:07,VALID,917.717,VALID,0.0,VALID,92.13,VALID,-0.005,VALID,19.129,INVALID,360.0,VALID,0.0,
2019-06-25, 03:05:07,VALID,917.731,VALID,0.0,VALID,92.288,VALID,0.006,VALID,19.113,INVALID,360.0,VALID,0.0,
2019-06-25, 03:06:07,VALID,917.702,VALID,0.0,VALID,92.388,VALID,-0.007,VALID,19.094,INVALID,360.0,VALID,0.0,
2019-06-25, 03:07:07,VALID,917.707,VALID,0.0,VALID,92.549,VALID,-0.005,VALID,19.081,INVALID,360.0,VALID,0.0,
2019-06-25, 03:08:07,VALID,917.715,VALID,0.0,VALID,92.758,VALID,-0.014,VALID,19.002,INVALID,360.0,VALID,0.0,
2019-06-25, 03:09:07,VALID,917.734,VALID,0.0,VALID,93.081,VALID,-0.004,VALID,18.878,INVALID,360.0,VALID,0.0,
2019-06-25, 03:10:07,VALID,917.723,VALID,0.0,VALID,93.325,VALID,0.011,VALID,18.808,INVALID,360.0,VALID,0.0,
2019-06-25, 03:11:07,VALID,917.718,VALID,0.0,VALID,93.561,VALID,-0.013,VALID,18.775,INVALID,360.0,VALID,0.0,
2019-06-25, 03:12:07,VALID,917.714,VALID,0.0,VALID,93.776,VALID,-0.006,VALID,18.737,INVALID,360.0,VALID,0.0,
2019-06-25, 03:13:07,VALID,917.695,VALID,0.0,VALID,93.964,VALID,-0.017,VALID,18.726,INVALID,360.0,VALID,0.0,
2019-06-25, 03:14:07,VALID,917.687,VALID,0.0,VALID,93.965,VALID,-0.022,VALID,18.75,INVALID,360.0,VALID,0.0,
2019-06-25, 03:15:07,VALID,917.684,VALID,0.0,VALID,93.815,VALID,-0.014,VALID,18.825,INVALID,360.0,VALID,0.0,
2019-06-25, 03:16:07,VALID,917.666,VALID,0.0,VALID,93.255,VALID,0.002,VALID,18.956,INVALID,360.0,VALID,0.0,
2019-06-25, 03:17:07,VALID,917.68,VALID,0.0,VALID,92.475,VALID,-0.01,VALID,19.079,INVALID,360.0,VALID,0.0,
2019-06-25, 03:18:07,VALID,917.667,VALID,0.0,VALID,92.094,VALID,-0.014,VALID,19.099,INVALID,360.0,VALID,0.0,
2019-06-25, 03:19:07,VALID,917.688,VALID,0.0,VALID,92.076,VALID,-0.006,VALID,19.104,INVALID,360.0,VALID,0.0,
2019-06-25, 03:20:07,VALID,917.685,VALID,0.0,VALID,92.08,VALID,-0.005,VALID,19.087,INVALID,360.0,VALID,0.0,
2019-06-25, 03:21:07,VALID,917.675,VALID,0.0,VALID,92.02,VALID,0.0,VALID,19.041,INVALID,360.0,VALID,0.0,
2019-06-25, 03:22:07,VALID,917.67,VALID,0.0,VALID,92.027,VALID,-0.012,VALID,18.97,INVALID,360.0,VALID,0.0,
2019-06-25, 03:23:07,VALID,917.659,VALID,0.0,VALID,92.36,VALID,-0.025,VALID,18.893,INVALID,360.0,VALID,0.0,
2019-06-25, 03:24:07,VALID,917.646,VALID,0.0,VALID,93.021,VALID,-0.021,VALID,18.82,INVALID,360.0,VALID,0.0,
2019-06-25, 03:25:07,VALID,917.652,VALID,0.0,VALID,93.474,VALID,-0.017,VALID,18.745,INVALID,360.0,VALID,0.0,
2019-06-25, 03:26:07,VALID,917.655,VALID,0.0,VALID,93.872,VALID,-0.017,VALID,18.682,INVALID,360.0,VALID,0.0,
2019-06-25, 03:27:07,VALID,917.668,VALID,0.0,VALID,94.296,VALID,-0.009,VALID,18.617,INVALID,360.0,VALID,0.0,
2019-06-25, 03:28:07,VALID,917.653,VALID,0.0,VALID,94.27,VALID,-0.007,VALID,18.545,INVALID,360.0,VALID,0.0,
2019-06-25, 03:29:07,VALID,917.646,VALID,0.0,VALID,94.159,VALID,-0.005,VALID,18.488,INVALID,360.0,VALID,0.0,
2019-06-25, 03:30:07,VALID,917.656,VALID,0.0,VALID,94.384,VALID,-0.007,VALID,18.463,INVALID,360.0,VALID,0.0,
2019-06-25, 03:31:07,VALID,917.668,VALID,0.0,VALID,94.479,VALID,0.005,VALID,18.452,INVALID,360.0,VALID,0.0,
2019-06-25, 03:32:07,VALID,917.691,VALID,0.0,VALID,94.351,VALID,-0.001,VALID,18.465,INVALID,360.0,VALID,0.0,
2019-06-25, 03:33:07,VALID,917.676,VALID,0.0,VALID,94.128,VALID,-0.002,VALID,18.43,INVALID,360.0,VALID,0.0,
2019-06-25, 03:34:07,VALID,917.668,VALID,0.0,VALID,94.35,VALID,-0.012,VALID,18.385,INVALID,360.0,VALID,0.0,
2019-06-25, 03:35:07,VALID,917.676,VALID,0.0,VALID,94.706,VALID,-0.003,VALID,18.335,VALID,46.0,VALID,0.0,
2019-06-25, 03:36:07,VALID,917.681,VALID,0.0,VALID,95.086,VALID,0.015,VALID,18.278,VALID,47.0,VALID,0.0,
2019-06-25, 03:37:07,VALID,917.696,VALID,0.0,VALID,95.345,VALID,-0.005,VALID,18.233,VALID,46.0,VALID,0.0,
2019-06-25, 03:38:07,VALID,917.713,VALID,0.0,VALID,95.627,VALID,0.014,VALID,18.244,INVALID,360.0,VALID,0.0,